This is the latest recevied weather packets stored in our database for station/object NR0A-4. If no packets are shown the sender has not sent any weather packets the latest 10 day(s).
| Time | Temp. | Humidity | Pressure | Rain* | Wind** | Luminosity | Snow |
|---|---|---|---|---|---|---|---|
| 1777924804 | 21.67° C | 32% | 1004.7 hPa | 0 mm | - | 805 W/m² | - |
| 1777924504 | 21.67° C | 32% | 1004.7 hPa | 0 mm | - | 812 W/m² | - |
| 1777924204 | 21.11° C | 32% | 1004.7 hPa | 0 mm | - | 819 W/m² | - |
| 1777923904 | 21.11° C | 31% | 1004.6 hPa | 0 mm | - | 826 W/m² | - |
| 1777923605 | 21.11° C | 31% | 1004.5 hPa | 0 mm | - | 828 W/m² | - |
| 1777923305 | 21.11° C | 33% | 1004.5 hPa | 0 mm | - | 833 W/m² | - |
| 1777923004 | 21.11° C | 33% | 1004.5 hPa | 0 mm | - | 837 W/m² | - |
| 1777922704 | 21.11° C | 34% | 1004.4 hPa | 0 mm | - | 844 W/m² | - |
| 1777922404 | 21.11° C | 33% | 1004.4 hPa | 0 mm | - | 849 W/m² | - |
| 1777922104 | 21.11° C | 32% | 1004.4 hPa | 0 mm | - | 853 W/m² | - |
| 1777921805 | 21.11° C | 32% | 1004.3 hPa | 0 mm | - | 854 W/m² | - |
| 1777921504 | 21.11° C | 35% | 1004.5 hPa | 0 mm | - | 860 W/m² | - |
| 1777921204 | 21.67° C | 32% | 1004.4 hPa | 0 mm | - | 861 W/m² | - |
| 1777920904 | 21.11° C | 33% | 1004.4 hPa | 0 mm | - | 863 W/m² | - |
| 1777920605 | 21.11° C | 33% | 1004.4 hPa | 0 mm | - | 867 W/m² | - |
| 1777920304 | 21.67° C | 32% | 1004.3 hPa | 0 mm | - | 867 W/m² | - |
| 1777920004 | 21.11° C | 32% | 1004.3 hPa | 0 mm | - | 868 W/m² | - |
| 1777919704 | 21.11° C | 32% | 1004.1 hPa | 0 mm | - | 867 W/m² | - |
| 1777919405 | 21.11° C | 32% | 1004.1 hPa | 0 mm | - | 870 W/m² | - |
| 1777919104 | 21.11° C | 32% | 1004 hPa | 0 mm | - | 870 W/m² | - |
| 1777918804 | 21.11° C | 31% | 1004.1 hPa | 0 mm | - | 870 W/m² | - |
| 1777918504 | 21.11° C | 33% | 1004 hPa | 0 mm | - | 870 W/m² | - |
| 1777918204 | 21.11° C | 31% | 1004 hPa | 0 mm | - | 868 W/m² | - |
| 1777917904 | 21.67° C | 30% | 1004 hPa | 0 mm | - | 867 W/m² | - |
| 1777917604 | 21.67° C | 32% | 1003.9 hPa | 0 mm | - | 865 W/m² | - |
* Rain latest hour (hover to see other rain measurements)
** Current wind speed in m/s (hover to see current wind gust speed)